Location: Unspecified
(45.4482°N, 0.0000°E)
Time: 06:27:26
(UTC+00:00)

Vanguard 2 - Visible Passes

Search period start: 04 April 2026 00:00
Search period end: 14 April 2026 00:00
Orbit: 554 x 2896 km, 32.9° (Epoch: 29 March)

Date Brightness Start Highest point End Pass type
(mag) Time Alt. Az. Time Alt. Az. Time Alt. Az.
4 Apr 10.6 20:01:48 10° WSW 20:11:13 33° SSW 20:21:32 16° SSE visible
4 Apr 11.3 22:12:55 10° WSW 22:20:39 17° SW 22:22:27 16° SSW visible
5 Apr 10.7 20:13:54 10° WSW 20:22:51 28° SSW 20:32:33 15° SSE visible
5 Apr 11.4 22:27:20 10° WSW 22:32:09 12° SW 22:33:29 12° SSW visible
6 Apr 10.9 20:26:12 10° WSW 20:34:28 24° SSW 20:43:38 13° SSE visible
7 Apr 11.1 20:38:51 10° WSW 20:46:05 19° SSW 20:54:45 11° S visible
8 Apr 11.3 20:52:10 10° WSW 20:57:41 14° SSW 21:04:09 10° S visible
9 Apr 10.7 18:53:43 10° WSW 19:00:22 23° SSW 19:09:35 10° SSE visible
10 Apr 10.8 19:06:08 10° WSW 19:12:03 19° SSW 19:19:50 10° SSE visible
11 Apr 11.0 19:19:03 10° SW 19:23:43 15° SSW 19:29:26 10° S visible
12 Apr 11.2 19:33:53 10° SW 19:35:24 10° SSW 19:37:00 10° SSW visible
